Regional Weather Roundup
Issued by NWS Albany, NY

Home | Current Version | Previous Version | Text Only | Print | Product List | Glossary On
Versions: 1 2 3 4 5 6 7 8 9 10 11 12 13 14 15 16 17 18 19 20 21 22 23 24 25 26 27 28 29 30 31 32 33 34 35 36 37 38 39 40 41 42 43 44 45 46 47 48 49 50
875
ASUS41 KALY 281810
RWRALY

NEW YORK STATE HOURLY WEATHER ROUNDUP
NATIONAL WEATHER SERVICE ALBANY NY
200 PM EDT SUN AUG 28 2016

NOTE: "FAIR" INDICATES FEW OR NO CLOUDS BELOW 12,000 FEET WITH NO
SIGNIFICANT WEATHER AND/OR NO OBSTRUCTIONS TO VISIBILITY.

NYZ032-033-038>043-046>054-057>066-NYZ062>081-082-084-281900-
EAST


CITY           SKY/WX    TMP DP  RH WIND       PRES   REMARKS
ALBANY         MOSUNNY   86  61  42 S14G21    30.17F
GLENS FALLS    MOSUNNY   83  66  56 S10       30.16F
POUGHKEEPSIE   SUNNY     84  61  45 S7        30.20F
NEWBURGH       SUNNY     84  66  54 SW12      30.24F
MONTGOMERY     SUNNY     86  64  47 VRB7      30.22F
WHITE PLAINS   MOSUNNY   84  63  49 S7G16     30.24F
ISLIP          MOSUNNY   84  55  36 SE13      30.24F
NEW YORK CITY  MOSUNNY   88  58  36 SE12      30.23F
CENTRAL PARK   SUNNY     87  60  40 VRB5      30.26F
$$

NYZ005>009-017-018-044>046-055-056-281900-
CENTRAL


CITY           SKY/WX    TMP DP  RH WIND       PRES   REMARKS
FULTON         PTSUNNY   86  71  60 SW8       30.13F HX  91
SYRACUSE       MOSUNNY   86  69  56 SW10      30.13F HX  90
ROME           PTSUNNY   84  69  60 SW8       30.15F
ELMIRA         SUNNY     88  68  51 W10       30.16F HX  91
BINGHAMTON     MOSUNNY   81  65  58 S9G21     30.22F
MONTICELLO     SUNNY     82  61  47 W6        30.28F
$$

NYZ026>034-041>043-087-281900-
NORTH


CITY           SKY/WX    TMP DP  RH WIND       PRES   REMARKS
WATERTOWN      MOSUNNY   83  69  62 SW13G23   30.12R
FORT DRUM      NOT AVBL
MASSENA        PTSUNNY   85  69  58 SW14G20   30.08F
SARANAC LAKE   MOSUNNY   83  64  52 SW14G22   30.14F
PLATTSBURGH    MOSUNNY   84  70  62 SE15      30.08F
$$

NYZ001>004-010>016-019>021-085-281900-
WEST


CITY           SKY/WX    TMP DP  RH WIND       PRES   REMARKS
NIAGARA FALLS  PTSUNNY   87  69  54 SW14      30.14S HX  91
BUFFALO        PTSUNNY   83  68  60 SW17      30.17S
DUNKIRK        MOSUNNY   81  72  74 W12       30.19R
JAMESTOWN      MOSUNNY   81  66  61 SW9       30.24S
WELLSVILLE     MOSUNNY   84  68  58 W7        30.26S
ROCHESTER      PTSUNNY   88  70  55 W13       30.14S HX  93
PENN YAN       SUNNY     89  67  47 W7        30.17S HX  92
$$

             KEY
       WCI = WIND CHILL INDEX
       VSB = VISIBILITY
       HX  = HEAT INDEX
$$




USA.gov is the U.S. government's official web portal to all federal, state and local government web resources and services.